[[{"header":{"parameterUnit":"m.s-1","parameterCategory":1,"la1":30.2991,"la2":30.254,"lo1":-89.0895,"lo2":-89.0444,"dy":0.0017,"dx":0.0017,"nx":28,"ny":28,"refTime":"2025-06-23T03:00:00:Z","depth":0,"parameterNumber":2,"parameterNumberName":"U-component_of_WINDS"},"data":[0,0,0,0,0,0,0,0,0,0,0,0,0,0,0,0,0,0,0,0,0,0,0,0,0,0,0,0,0,0,0,0,0,0,0,0,0,0,0,0,0,0,0,0,0,0,0,0,0,0,0,0,0,0,0,0,0,0,-3.0182,-3.0181,0,-3.0093,-3.0092,-3.0091,-2.9955,-2.9953,-2.995,-2.9948,-2.9859,-2.9859,-2.9859,0,0,0,0,0,0,0,0,0,0,0,0,0,-3.0237,-3.0237,-3.0182,-3.0181,-3.018,-3.0093,-3.0092,-3.0091,-2.9956,-2.9953,-2.995,-2.9947,-2.9859,-2.9859,-2.9859,0,0,0,0,0,0,0,0,0,0,0,0,0,-3.0188,-3.0237,-3.0182,-3.0102,-3.0094,-3.0094,-3.0092,-3.0091,-2.9956,-2.9953,-2.9949,-2.9946,-2.9859,-2.9859,-2.9859,-2.9931,0,0,-2.9858,-2.9858,0,0,0,0,0,0,0,0,-3.0191,-3.0186,-3.0115,-3.0107,-3.0098,-3.0032,-3.0079,-3.0037,-2.9957,-3.0009,-2.9948,-2.9944,-2.992,-2.9914,-2.9906,-2.9927,-2.9923,-2.9858,-2.9858,-2.9858,-2.9858,0,0,0,0,0,0,0,-3.0194,-3.0189,-3.0147,-3.0114,-3.0104,-3.0071,-3.006,-3.007,-2.9986,-3.0004,-2.9994,-2.9985,-2.9914,-2.9906,-2.9903,-2.9921,-2.9858,-2.9858,-2.9858,-2.9858,-3.0,-3.0004,0,0,0,0,0,0,-3.0209,-3.0193,-3.015,-3.0144,-3.0136,-3.0073,-3.0061,-3.0057,-2.9985,-2.9971,-2.9988,-2.9979,-2.9908,-2.9903,-2.9899,-2.998,-2.9858,-2.9858,-2.9858,-2.9996,-3.0001,-3.0005,0,0,0,0,0,0,-3.0211,-3.0207,-3.0153,-3.0166,-3.0156,-3.0076,-3.0073,-3.0057,-3.0048,-2.9973,-2.9958,-2.9995,-2.9905,-2.9899,-2.9924,-2.9975,-2.9858,-2.9858,-2.9992,-2.9998,-3.0003,-3.0142,0,0,0,0,0,0,-3.0213,-3.0208,-3.0234,-3.0167,-3.0156,-3.018,-3.0076,-3.0058,-3.0048,-3.0035,-2.9976,-2.9962,-2.9902,-2.9925,-2.9924,-2.9972,-2.9858,-2.9987,-2.9994,-3.0001,-3.0133,-3.0152,-3.0168,0,0,0,0,0,-3.0216,-3.0276,-3.0236,-3.0231,-3.0186,-3.0183,-3.0176,-3.0105,-3.0053,-3.0079,-3.0031,-2.9964,-2.997,-2.9929,-2.9927,-2.9976,-2.9983,-2.9992,-3.0001,-3.0125,-3.0148,-3.0168,0,0,0,0,0,0,-3.035,-3.0266,-3.022,-3.026,-3.023,-3.016,-3.019,-3.0132,-3.0116,-3.0104,-3.0017,-3.0005,-3.0042,-3.0011,-2.9967,-3.0043,-2.9966,-2.9975,-3.0062,-3.0083,-3.0101,-3.0107,-2.9858,0,0,0,0,0,-3.0385,-3.0388,-3.0314,-3.0357,-3.0344,-3.0271,-3.0266,-3.0214,-3.0179,-3.0165,-3.0119,-3.0088,-3.0083,-3.0081,-3.0072,-3.0128,-3.0114,-3.0161,-3.0179,-3.0194,-3.0202,-3.0232,-3.0252,-3.0034,-3.0034,-3.0033,0,0,-3.0456,-3.041,-3.0417,-3.0383,-3.0353,-3.036,-3.026,-3.0271,-3.0275,-3.0167,-3.0188,-3.0154,-3.0114,-3.0155,-3.0171,-3.0131,-3.026,-3.0205,-3.0217,-3.0217,-3.0243,-3.0263,-3.0282,-3.004,-3.0039,-3.0038,0,0,-3.0589,-3.0554,-3.0587,-3.0559,-3.0516,-3.0466,-3.0475,-3.0414,-3.0387,-3.0407,-3.0327,-3.0332,-3.0324,-3.03,-3.0286,-3.0414,-3.0353,-3.0414,-3.0507,-3.0537,-3.0554,-3.0569,-3.0616,-3.0633,-3.0422,-3.0423,-3.0423,0,-3.0682,-3.0688,-3.0611,-3.0628,-3.0616,-3.0519,-3.0553,-3.053,-3.0486,-3.0481,-3.0437,-3.0427,-3.0393,-3.0428,-3.046,-3.0452,-3.046,-3.0419,-3.0558,-3.0572,-3.0584,-3.0628,-3.0646,-3.043,-3.043,-3.0429,-3.0428,0,-3.0807,-3.0813,-3.0845,-3.0805,-3.0797,-3.0822,-3.0751,-3.0752,-3.0702,-3.0658,-3.0682,-3.0638,-3.0619,-3.0624,-3.0575,-3.0654,-3.063,-3.0573,-3.0494,-3.0614,-3.0654,-3.067,-3.0442,-3.0439,-3.0436,-3.0435,0,0,-3.102,-3.0939,-3.0952,-3.0934,-3.088,-3.0884,-3.0906,-3.0888,-3.0892,-3.0866,-3.0883,-3.0881,-3.0828,-3.0814,-3.0761,-3.0787,-3.0894,-3.0727,-3.0725,-3.076,-3.098,-3.1024,-3.1044,-3.0853,-3.0856,-3.0858,-3.0984,0,-3.1142,-3.1174,-3.1107,-3.1156,-3.1161,-3.1071,-3.109,-3.1061,-3.1021,-3.1021,-3.0978,-3.0978,-3.0908,-3.0899,-3.0921,-3.0876,-3.0937,-3.0866,-3.087,-3.0871,-3.0882,-3.1065,-3.111,-3.123,-3.0999,-3.1001,-3.1003,0,-3.1288,-3.127,-3.132,-3.1266,-3.1266,-3.1284,-3.1264,-3.1265,-3.123,-3.12,-3.1185,-3.1124,-3.1144,-3.1069,-3.1096,-3.105,-3.1047,-3.1026,-3.1029,-3.1027,-3.0944,-3.1068,-3.1267,-3.1286,-3.1027,-3.1025,-3.1023,0,-3.144,-3.1429,-3.1457,-3.1444,-3.1381,-3.1397,-3.1372,-3.1334,-3.1328,-3.1311,-3.1307,-3.1293,-3.1285,-3.1276,-3.1214,-3.1165,-3.1249,-3.1168,-3.1226,-3.1228,-3.1247,-3.1247,-3.1449,-3.1246,-3.1246,-3.1245,-3.1245,0,-3.1584,-3.1618,-3.1525,-3.1543,-3.1579,-3.1503,-3.1542,-3.1507,-3.1475,-3.1486,-3.1407,-3.1419,-3.1336,-3.134,-3.1291,-3.1322,-3.1319,-3.1296,-3.1283,-3.1303,-3.1306,-3.13,-3.1291,-3.125,-3.1249,-3.1248,-3.1247,0,-3.1759,-3.1698,-3.1723,-3.1662,-3.1648,-3.1678,-3.1626,-3.1641,-3.1598,-3.1613,-3.1612,-3.1545,-3.1545,-3.1482,-3.147,-3.1437,-3.149,-3.1461,-3.1501,-3.1492,-3.1554,-3.1549,-3.176,-3.1784,-3.1565,-3.1568,-3.1569,0,-3.1854,-3.1879,-3.1821,-3.1823,-3.1802,-3.1805,-3.1799,-3.1726,-3.1724,-3.1689,-3.1709,-3.1703,-3.1694,-3.17,-3.165,-3.1641,-3.1612,-3.1686,-3.161,-3.1631,-3.1614,-3.1614,-3.1617,-3.1703,-3.1705,-3.1708,-3.1709,0,-3.2031,-3.2,-3.1995,-3.198,-3.1976,-3.1961,-3.194,-3.1947,-3.1867,-3.1869,-3.1869,-3.1862,-3.1851,-3.1847,-3.1829,-3.1804,-3.1745,-3.1734,-3.1747,-3.1768,-3.1791,-3.1781,-3.1546,-3.1729,-3.1727,-3.1726,-3.1725,-3.1724,-3.2169,-3.2188,-3.2151,-3.2148,-3.2126,-3.211,-3.2122,-3.2081,-3.2079,-3.2063,-3.2021,-3.2029,-3.1996,-3.1966,-3.1947,-3.1953,-3.1916,-3.1935,-3.1939,-3.1945,-3.1957,-3.1791,-3.195,-3.1949,-3.1948,-3.1948,-3.1947,0,-3.2343,-3.2315,-3.2314,-3.2289,-3.2288,-3.2232,-3.2208,-3.2211,-3.2218,-3.2193,-3.2187,-3.2188,-3.2185,-3.2136,-3.2128,-3.2142,-3.2115,-3.2142,-3.214,-3.2136,-3.199,-3.198,-3.2165,-3.2164,-3.2164,-3.2164,-3.2164,-3.2164,-3.2433,-3.2461,-3.2427,-3.2445,-3.2417,-3.2424,-3.2415,-3.2401,-3.238,-3.2386,-3.2382,-3.2351,-3.2317,-3.2306,-3.2301,-3.2287,-3.2288,-3.2325,-3.2302,-3.2167,-3.2146,-3.2126,-3.2116,-3.2326,-3.2326,-3.2447,-3.2448,-3.2449]},{"header":{"parameterUnit":"m.s-1","parameterCategory":1,"la1":30.2991,"la2":30.254,"lo1":-89.0895,"lo2":-89.0444,"dy":0.0017,"dx":0.0017,"nx":28,"ny":28,"refTime":"2025-06-23T03:00:00:Z","depth":0,"parameterNumber":3,"parameterNumberName":"V-component_of_WINDS"},"data":[0,0,0,0,0,0,0,0,0,0,0,0,0,0,0,0,0,0,0,0,0,0,0,0,0,0,0,0,0,0,0,0,0,0,0,0,0,0,0,0,0,0,0,0,0,0,0,0,0,0,0,0,0,0,0,0,0,0,1.6409,1.6409,0,1.6382,1.6382,1.6381,1.6408,1.6409,1.641,1.6412,1.6381,1.6379,1.6377,0,0,0,0,0,0,0,0,0,0,0,0,0,1.6484,1.6482,1.6409,1.6409,1.6409,1.6382,1.6382,1.6381,1.6408,1.6409,1.6411,1.6412,1.6381,1.6379,1.6377,0,0,0,0,0,0,0,0,0,0,0,0,0,1.6453,1.6482,1.641,1.6419,1.642,1.6382,1.6382,1.6381,1.6408,1.6409,1.6411,1.6413,1.6382,1.6379,1.6377,1.6327,0,0,1.6368,1.6367,0,0,0,0,0,0,0,0,1.6455,1.6451,1.6418,1.6418,1.6419,1.64,1.6397,1.6363,1.6407,1.6412,1.6412,1.6413,1.6386,1.6383,1.6374,1.6326,1.6325,1.6368,1.6366,1.6365,1.6364,0,0,0,0,0,0,0,1.6457,1.6452,1.6398,1.6418,1.6418,1.6424,1.6422,1.639,1.639,1.6412,1.6414,1.641,1.6386,1.6377,1.6373,1.6324,1.6368,1.6366,1.6364,1.6363,1.6235,1.6233,0,0,0,0,0,0,1.6459,1.6454,1.6399,1.6398,1.6441,1.6422,1.6419,1.6405,1.6391,1.639,1.6409,1.6412,1.638,1.6377,1.6372,1.6314,1.6365,1.6363,1.6361,1.6236,1.6234,1.6232,0,0,0,0,0,0,1.646,1.6453,1.64,1.6426,1.642,1.6419,1.6402,1.6403,1.6393,1.6388,1.6388,1.6399,1.6382,1.6376,1.6339,1.6313,1.6361,1.6359,1.6238,1.6236,1.6233,1.6196,0,0,0,0,0,0,1.6462,1.6454,1.6435,1.6426,1.6418,1.6367,1.6401,1.6401,1.6389,1.6392,1.6379,1.6379,1.6382,1.6343,1.6336,1.631,1.6357,1.6241,1.6237,1.6234,1.6199,1.6192,1.6186,0,0,0,0,0,1.6465,1.6425,1.6434,1.6428,1.6395,1.6366,1.6362,1.6368,1.6387,1.6368,1.6365,1.6379,1.6317,1.6338,1.6331,1.6304,1.6242,1.6238,1.6234,1.6202,1.6193,1.6186,0,0,0,0,0,0,1.6431,1.6424,1.6434,1.639,1.6379,1.637,1.6347,1.6358,1.634,1.6344,1.6352,1.6348,1.6308,1.6303,1.6327,1.6256,1.6283,1.6277,1.6261,1.6253,1.6246,1.6248,1.6355,0,0,0,0,0,1.6419,1.6396,1.6391,1.6353,1.6347,1.6348,1.6335,1.6341,1.6329,1.6323,1.6318,1.6305,1.6282,1.6267,1.6247,1.6199,1.6196,1.6177,1.6171,1.6165,1.616,1.6134,1.6125,1.6219,1.6219,1.6219,0,0,1.6392,1.6386,1.6371,1.6346,1.6337,1.6313,1.6343,1.6316,1.6298,1.6319,1.6283,1.6279,1.6265,1.6222,1.6203,1.6216,1.6133,1.616,1.6156,1.6153,1.6129,1.612,1.6112,1.6217,1.6217,1.6218,0,0,1.6332,1.6325,1.6293,1.6284,1.6271,1.6273,1.6265,1.6255,1.6253,1.6218,1.6233,1.6212,1.6173,1.6163,1.6152,1.609,1.6102,1.6083,1.6048,1.6023,1.6015,1.6009,1.5986,1.5977,1.6078,1.6078,1.6078,0,1.6301,1.6265,1.6274,1.6246,1.6235,1.6255,1.6221,1.6212,1.6193,1.6184,1.62,1.6153,1.6145,1.61,1.6084,1.6076,1.6067,1.6083,1.6016,1.6009,1.6003,1.5981,1.5973,1.6075,1.6076,1.6076,1.6076,0,1.6227,1.6203,1.6178,1.616,1.6146,1.6115,1.6119,1.6104,1.6112,1.6111,1.6075,1.6066,1.6044,1.6034,1.6041,1.599,1.5999,1.6015,1.6042,1.5992,1.5971,1.5963,1.6072,1.6073,1.6074,1.6074,0,0,1.6143,1.6132,1.6122,1.6115,1.6103,1.6084,1.6054,1.6034,1.602,1.6007,1.5982,1.5949,1.5965,1.5953,1.5959,1.5937,1.5887,1.5956,1.5956,1.5943,1.583,1.5818,1.5808,1.5896,1.5895,1.5893,1.5831,0,1.6082,1.6032,1.6039,1.599,1.5968,1.5987,1.5961,1.5951,1.595,1.593,1.5929,1.5906,1.5928,1.5921,1.59,1.5898,1.5865,1.5902,1.5872,1.5871,1.5874,1.5797,1.5783,1.5725,1.5824,1.5822,1.5821,0,1.6003,1.5988,1.5937,1.593,1.592,1.5897,1.5879,1.586,1.5849,1.585,1.5837,1.5848,1.5818,1.5847,1.5805,1.5831,1.5819,1.5816,1.5814,1.581,1.5842,1.5791,1.5707,1.5698,1.5809,1.581,1.5811,0,1.5946,1.5913,1.5878,1.5871,1.5862,1.5845,1.584,1.5831,1.5818,1.5802,1.5794,1.5775,1.5764,1.5749,1.5753,1.5774,1.5711,1.574,1.571,1.571,1.5695,1.5695,1.5607,1.5689,1.5689,1.5689,1.5689,0,1.5876,1.5844,1.5853,1.5831,1.5796,1.5805,1.577,1.5767,1.5759,1.5737,1.5752,1.5731,1.5739,1.5718,1.5722,1.5687,1.5682,1.5682,1.5683,1.5679,1.5679,1.5671,1.5675,1.5687,1.5687,1.5688,1.5688,0,1.5806,1.581,1.5774,1.5768,1.5766,1.574,1.5735,1.5715,1.5716,1.5688,1.5682,1.5683,1.5659,1.5663,1.5637,1.5639,1.5596,1.5602,1.5599,1.56,1.557,1.5573,1.5472,1.546,1.555,1.555,1.5549,0,1.5761,1.5736,1.5729,1.5716,1.571,1.5688,1.5676,1.5685,1.5671,1.5657,1.5638,1.5617,1.5599,1.5561,1.5559,1.5539,1.5545,1.5511,1.5541,1.5539,1.5543,1.5544,1.5542,1.5504,1.5503,1.5502,1.5502,0,1.5679,1.5683,1.5665,1.5648,1.5633,1.5619,1.5607,1.5596,1.5603,1.5587,1.5564,1.5551,1.5525,1.5502,1.5484,1.5478,1.5491,1.5492,1.5484,1.548,1.548,1.5479,1.5582,1.5494,1.5495,1.5496,1.5496,1.5496,1.562,1.5599,1.5591,1.557,1.5563,1.5551,1.5532,1.5531,1.5512,1.5492,1.5499,1.5472,1.5462,1.5439,1.5431,1.541,1.5423,1.5411,1.5408,1.5405,1.5401,1.5484,1.5407,1.5407,1.5407,1.5408,1.5408,0,1.5539,1.5535,1.5516,1.5499,1.5483,1.5498,1.5486,1.5471,1.5448,1.5438,1.5421,1.5394,1.5373,1.537,1.535,1.5334,1.5339,1.5328,1.5329,1.5328,1.5391,1.54,1.5325,1.5325,1.5325,1.5325,1.5325,1.5325,1.5495,1.5461,1.5464,1.5426,1.5423,1.5397,1.5389,1.5379,1.5371,1.5341,1.5324,1.5322,1.5315,1.5295,1.5276,1.5276,1.5268,1.5254,1.5256,1.5315,1.5323,1.5331,1.5339,1.5252,1.5252,1.5194,1.5194,1.5193]}]]